星链-3507 (STARLINK-3507 )

导读

STARLINK-3507是美国太空探索技术公司星链(Starlink)星座的卫星,于2022年2月21日发射升空,属于星链互联网卫星组网的组成部分,旨在为全球各地提供高速低延迟的宽带互联网服务,尤其覆盖偏远地区与网络基础设施薄弱区域,是星链大规模低轨卫星星座部署中的一环。

Basic Information
目录编号:
51753
目录名称:
STARLINK-3507
国际标识:
2022-016AR
轨道中心:
EARTH
卫星名称:
星链-3507
卫星全名:
星链-3507 (STARLINK-3507 )
卫星状态:
在轨 (已飞行1577 天)
发射日期:
2022-02-21 UTC
国别 :
美国 (US)
星等 :
--
Orbit Information
数据来源 国际轨道数据 AOE轨道数据
星历时间 2026-06-17T19:06:49+0800
7小时前
查看轨道信息
2026-06-15T04:00:00+0800
2天前
查看轨道信息
半长轴 6917.904km 6917.904km
偏心率 0.000119 0.0001117
轨道倾角 53.159° 53.158°
近地点辐角 88.719° 83.598°
升交点赤经 221.133° 232.955°
平近点角 271.394° 24.471°
近地点 538.943km 538.994km
远地点 540.591km 540.54km
周期 95.438分钟 95.438分钟
每日圈数 15.088323 15.088326
Detailed Information
固有亮度:
5
最大亮度:
2.5
卫星平台:
Starlink v1.5
覆盖范围:
全球
运营商:
太空探索技术公司
运营商所在国:
美国
制造商(研发单位):
太空探索技术公司
制造商所在国:
美国
使用方式:
暂无
Satellite Introduction
星链(Starlink)计划是由太空探索技术公司(SpaceX)提出的一个巨型低轨卫星互联网星座项目,计划在2019年至2024年间在太空搭建由约1.2万颗卫星组成的“星链”网络,其中1584颗将部署在地球上空550千米处的近地轨道,并从2020年开始工作。该卫星仍在工作。
2D Orbit Map
3D Orbit Map
Orbit Altitude Analysis Chart
Orbit Inclination Analysis Chart
Orbit Comprehensive Analysis Chart
View Comprehensive Chart